Location: Bretagne
(43.8474°N, 0.4650°W)
Time: 08:50:03
(UTC+00:00)

SJ 16-02 - Pass Details

Date: 15 January 2026
Orbit: 582 x 594 km, 75.0° (Epoch: 18 February)

Event Time Altitude Azimuth Distance (km) Brightness Sun altitude
Rises 18:00:00 0° 328° (NNW) 2,824 4.9 -12.4°
Reaches altitude 10° 18:02:32 10° 314° (NW) 1,921 4.3 -12.9°
Maximum altitude 18:05:57 24° 261° (W) 1,252 3.9 -13.4°
Drops below altitude 10° 18:09:21 10° 208° (SSW) 1,914 4.5 -14.0°
Sets 18:11:53 0° 194° (SSW) 2,812 5.2 -14.5°
